Find Starlink 36329

NORAD ID: 67739 Int'l Des: 2026-026 Owner: SPXS Country: US Constellation: starlink operational
LEOCIRCULARRETROGRADE

現在のビュー

3D地球を読み込み中...

Starlink 36329について

説明を読み込み中...

次回通過

Passes for default location (London). Set your location on the main map for personalized predictions.

高度履歴

Loading altitude history...

軌道要素

1 67739U 26026U 26146.09459644 .00019597 00000-0 60751-3 0 9991
2 67739 97.2848 199.6864 0001178 140.4417 219.6912 15.33458702 15995
Epoch: May 26, 2026 • Age: 14 hours

現在のステータス

高度 471.8 km
速度 7.63 km/s
衛星直下点 42.25°N, 61.14°E
打ち上げ日 Feb 11, 2026
運用期間 0.2 years
タイプ internet

技術仕様

分類 Payload
質量 575.00 kg
乾燥質量 530.00 kg
総質量 575.00 kg
長さ 0.30 m
直径 4.10 m
スパン 29.00 m
形状 Box + pan
製造者 SPXS
バスタイプ Starlink V2MO
フェーズステータス In Orbit
所有者/国 SPXS/US

Most Searched